Weather Roundup
Issued by NWS Chicago, IL

Home | Current Version | Previous Version | Graphics & Text | Print | Product List | Glossary On
Versions: 1 2 3 4 5 6 7 8 9 10 11 12 13 14 15 16 17 18 19 20 21 22 23 24 25 26 27 28 29 30 31 32 33 34 35 36 37 38 39 40 41 42 43 44 45 46 47 48 49 50
000
NZUS59 KLOT 190608
HRRLOT

CHICAGO AREA WEATHER ROUNDUP
NATIONAL WEATHER SERVICE CHICAGO/ROMEOVILLE IL
1200 AM CST SUN FEB 19 2017

NOTE: "FAIR" INDICATES FEW OR NO CLOUDS BELOW 12,000 FEET WITH NO
SIGNIFICANT WEATHER AND/OR OBSTRUCTIONS TO VISIBILITY.

* THESE STATIONS ARE NOT UNDER NWS QUALITY CONTROL. THEY ALSO MAY NOT
  REPORT WEATHER SUCH AS PRECIPITATION OR FOG.

ILZ005-006-012>014-019>023-190700-
NORTHEAST ILLINOIS

CITY           SKY/WX    TMP DP  RH WIND       PRES   REMARKS
OHARE          CLEAR     41  34  76 CALM      29.85R
6HR MIN TEMP:  40; 6HR MAX TEMP:  61;

MIDWAY         CLEAR     46  34  62 CALM      29.85R
6HR MIN TEMP:  45; 6HR MAX TEMP:  62;

AURORA         CLEAR     36  32  85 N3        29.86S
6HR MIN TEMP:  34; 6HR MAX TEMP:  54;

LANSING*       CLEAR     38  37  96 CALM      29.86R
JOLIET*        CLEAR     36  33  90 CALM      29.86S
WAUKEGAN       CLEAR     42  38  85 W6        29.85R
6HR MIN TEMP:  36; 6HR MAX TEMP:  49;

DUPAGE AIRPORT CLEAR     38  31  76 CALM      29.85R
6HR MIN TEMP:  37; 6HR MAX TEMP:  55;

WHEELING       CLEAR     36  32  85 CALM      29.87R
6HR MIN TEMP:  36; 6HR MAX TEMP:  57;

KANKAKEE*      CLEAR     39  35  86 SW7       29.87R
MORRIS*        CLEAR     41  34  74 CALM      29.85R
LEWIS AIRPORT* CLEAR     43  39  85 N5        29.85F
NORTHERLY ISL    N/A     50  31  48 W5          N/A
$$

WIZ051-052-058>065-066-070>072-190700-
SOUTHEAST WISCONSIN

CITY           SKY/WX    TMP DP  RH WIND       PRES   REMARKS
MILWAUKEE      PTCLDY    49  37  63 W5        29.86R
6HR MIN TEMP:  42; 6HR MAX TEMP:  59;

KENOSHA*       CLEAR     36  33  89 W3        29.86R
RACINE*        CLEAR     47  37  68 W7        29.87R
WAUKESHA         N/A     41  34  75 W6        29.87R
WEST BEND      MOCLDY    37  32  81 W3        29.85R
$$

INZ001>003-010>013-019-020-190700-
NORTHWEST INDIANA

CITY           SKY/WX    TMP DP  RH WIND       PRES   REMARKS
GARY*          CLEAR     35  33  90 CALM      29.87R
6HR MIN TEMP:  35; 6HR MAX TEMP:  49;

MICHIGAN CITY* NOT AVBL
RENSSELAER*    NOT AVBL
VALPARAISO     CLEAR     42  38  85 SW3       29.86R
$$

LMZ740>746-190700-
SOUTHERN LAKE MICHIGAN

STATION/POSITION TIME  SKY/WX   TEMP WIND        PRES    VSBY
                                AIR  DIR/SP/G
                 (UTC)          (F)  (DEG/KT/KT) (MB)    (MI)
HARRISON CRIB    0540            55  280/  8/  8   N/A
BURNHAM HARBOR   0600            49  280/  2/  5   N/A
CALUMET HARBOR   0548            45  220/  2/  3 1010.6R
BURNS HARBOR     0540            40  270/  7/  7 1011.5R
MICHIGAN CITY    0540            45  210/  2/  2   N/A
$$

ABBREVIATIONS USED IN REMARKS
   TC - TEMPERATURE IN CELSIUS
  WCI - WIND CHILL INDEX
   HX - HEAT INDEX
  VSB - VISIBILITY
$$




USA.gov is the U.S. government's official web portal to all federal, state and local government web resources and services.